AUI925 UKBB-EPKK

Flight info

Callsign AUI925
Flight time 1h 26m
Altitude 34000
Route N0470F340 KAFEL P27 VI M141 LADOB DCT LENOV
Aircraft B763/H-VGDW/C

Departure

Time 2025-10-03 11:29
Airport Boryspil International Airport (UKBB)

Arrival

Time 2025-10-03 12:55
Airport Kraków John Paul II International Airport (EPKK)
Time Latitude Longitude Altitude Speed Heading
2025-10-03 11:03 50.34899 30.89856 429 ft 0 kts 273°
2025-10-03 11:20 50.34897 30.89920 428 ft 2 kts 273°
2025-10-03 11:20 50.34896 30.89958 428 ft 2 kts 271°
2025-10-03 11:21 50.34911 30.89995 428 ft 2 kts 197°
2025-10-03 11:21 50.34919 30.89998 428 ft 0 kts 184°
2025-10-03 11:23 50.34915 30.89999 428 ft 1 kts 169°
2025-10-03 11:23 50.34889 30.90085 428 ft 4 kts 98°
2025-10-03 11:24 50.34728 30.90219 428 ft 18 kts 180°
2025-10-03 11:24 50.34360 30.90200 428 ft 34 kts 184°
2025-10-03 11:25 50.33781 30.90153 428 ft 45 kts 183°
2025-10-03 11:25 50.33187 30.90110 428 ft 40 kts 183°
2025-10-03 11:26 50.32909 30.90090 428 ft 38 kts 184°
2025-10-03 11:26 50.32445 30.90183 428 ft 31 kts 105°
2025-10-03 11:27 50.32898 30.90410 428 ft 84 kts
2025-10-03 11:27 50.34920 30.90595 830 ft 179 kts
2025-10-03 11:28 50.38741 30.91039 1916 ft 222 kts
2025-10-03 11:28 50.42012 30.91394 3045 ft 243 kts
2025-10-03 11:29 50.45459 30.91347 4372 ft 258 kts 342°
2025-10-03 11:29 50.48137 30.87532 5672 ft 273 kts 307°
2025-10-03 11:30 50.49263 30.85112 6337 ft 277 kts 306°
2025-10-03 11:30 50.51000 30.81212 7458 ft 280 kts 304°
2025-10-03 11:31 50.53119 30.76014 8823 ft 284 kts 289°
2025-10-03 11:31 50.52885 30.70081 10173 ft 276 kts 244°
2025-10-03 11:32 50.50304 30.60830 10829 ft 339 kts 243°
2025-10-03 11:32 50.48342 30.54087 12466 ft 342 kts 242°
2025-10-03 11:33 50.46578 30.48096 13769 ft 347 kts 242°
2025-10-03 11:33 50.44791 30.42061 14993 ft 352 kts 242°
2025-10-03 11:34 50.43542 30.37855 15805 ft 356 kts 243°
2025-10-03 11:34 50.42187 30.31728 16889 ft 365 kts 255°
2025-10-03 11:35 50.41201 30.23549 18206 ft 372 kts 260°
2025-10-03 11:36 50.43302 30.07187 20646 ft 392 kts 285°
2025-10-03 11:36 50.44184 30.03088 21242 ft 395 kts 285°
2025-10-03 11:36 50.45999 29.94885 22369 ft 401 kts 285°
2025-10-03 11:37 50.48806 29.82298 24053 ft 407 kts 286°
2025-10-03 11:38 50.53526 29.60968 26618 ft 419 kts 285°
2025-10-03 11:41 50.58798 29.20987 30661 ft 417 kts 249°
2025-10-03 11:42 50.51210 28.90837 33305 ft 427 kts 245°
2025-10-03 11:45 50.42777 28.50904 34259 ft 431 kts 253°
2025-10-03 11:46 50.38424 28.23451 34261 ft 433 kts 253°
2025-10-03 11:48 50.31776 27.82334 34247 ft 433 kts 253°
2025-10-03 11:50 50.26333 27.50666 34237 ft 432 kts 252°
2025-10-03 11:52 50.19336 27.10811 34234 ft 429 kts 251°
2025-10-03 11:54 50.11803 26.80287 34231 ft 424 kts 245°
2025-10-03 11:56 50.01579 26.42237 34228 ft 424 kts 245°
2025-10-03 11:58 49.91817 26.09020 34232 ft 423 kts 243°
2025-10-03 12:00 49.82057 25.76794 34222 ft 424 kts 243°
2025-10-03 12:02 49.73164 25.47813 34208 ft 423 kts 243°
2025-10-03 12:04 49.61683 25.10905 34210 ft 421 kts 242°
2025-10-03 12:06 49.51452 24.78514 34208 ft 420 kts 242°
2025-10-03 12:09 49.39954 24.42615 34205 ft 418 kts 242°
2025-10-03 12:10 49.31276 24.15859 34208 ft 418 kts 241°
2025-10-03 12:13 49.19468 23.79937 34201 ft 417 kts 241°
2025-10-03 12:14 49.10196 23.52101 34175 ft 418 kts 241°
2025-10-03 12:17 48.98375 23.17051 34178 ft 417 kts 240°
2025-10-03 12:18 48.94401 22.87055 34175 ft 431 kts 266°
2025-10-03 12:20 48.94949 22.50712 34173 ft 431 kts 266°
2025-10-03 12:22 49.01514 22.21321 34178 ft 446 kts 286°
2025-10-03 12:24 49.11763 21.83608 31883 ft 424 kts 285°
2025-10-03 12:26 49.19624 21.54275 28567 ft 421 kts 284°
2025-10-03 12:28 49.29027 21.18685 24787 ft 397 kts 286°
2025-10-03 12:29 49.31019 21.11070 23986 ft 393 kts 287°
2025-10-03 12:29 49.32930 21.03755 23219 ft 390 kts 288°
2025-10-03 12:30 49.35940 20.96840 22413 ft 396 kts 306°
2025-10-03 12:30 49.39475 20.90391 21564 ft 391 kts 306°
2025-10-03 12:31 49.42937 20.84060 20741 ft 386 kts 307°
2025-10-03 12:31 49.46376 20.77755 19927 ft 381 kts 307°
2025-10-03 12:32 49.49768 20.71523 19124 ft 376 kts 308°
2025-10-03 12:33 49.54775 20.62298 17938 ft 372 kts 308°
2025-10-03 12:33 49.56414 20.59271 17552 ft 370 kts 308°
2025-10-03 12:33 49.59678 20.53231 16995 ft 364 kts 309°
2025-10-03 12:34 49.62920 20.47220 16678 ft 364 kts 309°
2025-10-03 12:34 49.66104 20.41300 16352 ft 361 kts 309°
2025-10-03 12:35 49.69295 20.35355 16018 ft 359 kts 309°
2025-10-03 12:35 49.72437 20.29487 15685 ft 357 kts 308°
2025-10-03 12:36 49.75585 20.23598 15347 ft 354 kts 309°
2025-10-03 12:37 49.81920 20.18480 14600 ft 353 kts 356°
2025-10-03 12:37 49.86776 20.18388 13958 ft 348 kts 359°
2025-10-03 12:37 49.89184 20.18367 13644 ft 343 kts 359°
2025-10-03 12:38 49.93704 20.18330 13596 ft 313 kts 360°
2025-10-03 12:38 49.97843 20.17478 13259 ft 297 kts 348°
2025-10-03 12:39 50.01526 20.15253 12655 ft 291 kts 316°
2025-10-03 12:39 50.02995 20.09866 11916 ft 289 kts 267°
2025-10-03 12:40 50.02491 20.04792 11337 ft 288 kts 259°
2025-10-03 12:41 50.01275 19.95749 10178 ft 293 kts 258°
2025-10-03 12:41 50.00849 19.92741 9689 ft 298 kts 258°
2025-10-03 12:41 49.99974 19.86610 9155 ft 291 kts 259°
2025-10-03 12:42 49.99104 19.80509 8412 ft 292 kts 259°
2025-10-03 12:42 49.98234 19.74429 7985 ft 280 kts 259°
2025-10-03 12:43 49.97405 19.68622 7998 ft 276 kts 259°
2025-10-03 12:44 49.96217 19.60328 7899 ft 255 kts 259°
2025-10-03 12:44 49.95832 19.57643 7814 ft 251 kts 259°
2025-10-03 12:44 49.95073 19.52351 7648 ft 252 kts 259°
2025-10-03 12:45 49.94312 19.47032 7264 ft 253 kts 259°
2025-10-03 12:45 49.93727 19.41763 6657 ft 246 kts 279°
2025-10-03 12:46 49.95542 19.37816 6020 ft 234 kts 339°
2025-10-03 12:46 49.98596 19.36390 5493 ft 228 kts 348°
2025-10-03 12:47 50.01479 19.37378 4715 ft 226 kts 46°
2025-10-03 12:48 50.02847 19.43641 4180 ft 175 kts 77°
2025-10-03 12:48 50.03371 19.47246 4204 ft 173 kts 76°
2025-10-03 12:49 50.03891 19.50868 3885 ft 165 kts 77°
2025-10-03 12:49 50.04140 19.52616 3703 ft 168 kts 76°
2025-10-03 12:49 50.04625 19.56038 3305 ft 145 kts 77°
2025-10-03 12:50 50.05031 19.58906 3125 ft 147 kts 78°
2025-10-03 12:50 50.05470 19.62021 2540 ft 150 kts 76°
2025-10-03 12:51 50.05873 19.64706 2160 ft 153 kts 79°
2025-10-03 12:52 50.06587 19.70376 1682 ft 150 kts 76°
2025-10-03 12:52 50.07053 19.73404 1353 ft 154 kts 79°
2025-10-03 12:53 50.07431 19.76009 1008 ft 153 kts 78°
2025-10-03 12:53 50.07698 19.77913 805 ft 148 kts 80°
2025-10-03 12:54 50.07874 19.79193 802 ft 75 kts 79°
2025-10-03 12:54 50.07943 19.79710 802 ft 9 kts 78°
2025-10-03 12:55 50.07966 19.79868 802 ft 11 kts 77°
2025-10-03 12:55 50.07997 19.80095 802 ft 11 kts 78°
2025-10-03 12:56 50.07973 19.80286 802 ft 8 kts 159°
2025-10-03 12:56 50.07930 19.80307 802 ft 7 kts 163°
2025-10-03 12:57 50.07820 19.80339 802 ft 9 kts 183°
2025-10-03 12:57 50.07757 19.80181 802 ft 16 kts 256°
2025-10-03 12:58 50.07678 19.79982 802 ft 18 kts 208°
2025-10-03 12:58 50.07525 19.79928 802 ft 16 kts 167°
2025-10-03 12:59 50.07357 19.80001 802 ft 12 kts 166°
2025-10-03 12:59 50.07325 19.80014 802 ft 0 kts 167°
2025-10-03 13:00 50.07320 19.80015 802 ft 0 kts 167°